Regional Weather Roundup
Issued by NWS

Home | Current Version | Previous Version | Text Only | Print | Product List | Glossary On
Versions: 1 2 3 4 5 6 7 8 9 10 11 12 13 14 15 16 17 18 19 20 21 22 23 24 25 26 27 28 29 30 31 32 33 34 35 36 37 38 39 40 41 42 43 44 45 46 47 48 49 50
000
ASUS43 KTOP 230059
RWRKS

WEATHER ROUNDUP FOR KANSAS
NATIONAL WEATHER SERVICE GOODLAND KS
800 PM CDT TUE JUL 22 2014

NOTE:  "FAIR" INDICATES FEW OR NO CLOUDS BELOW 12,000 FEET WITH NO
SIGNIFICANT WEATHER AND/OR OBSTRUCTIONS TO VISIBILITY.

KSZ001>006-013>018-027>032-041>047-230200-
NORTHWEST KANSAS

CITY           SKY/WX    TMP DP  RH WIND       PRES   REMARKS
GOODLAND       SUNNY     92  58  31 SE7       30.17S
HAYS           PTCLDY    91  64  40 S8        30.08S
HILL CITY      CLEAR     95  68  41 E6        30.09S HX  99
RUSSELL        CLEAR     93  72  50 S6        30.06R HX 101
$$

KSZ061>065-074>080-084>089-230200-
SOUTHWEST KANSAS

CITY           SKY/WX    TMP DP  RH WIND       PRES   REMARKS
DODGE CITY     CLEAR     90  63  40 SE12      30.12R
ELKHART          N/A     83  63  51 SE21        N/A
GARDEN CITY    SUNNY     89  70  53 SE8       30.13R
GREAT BEND     CLEAR     90  72  55 S8        30.06R HX  96
LIBERAL        MOSUNNY   91  63  38 SE13      30.15R
PRATT          CLEAR     90  63  40 S6        30.11R
$$

KSZ066>073-081>083-090>101-230200-
SOUTHEAST KANSAS

CITY           SKY/WX    TMP DP  RH WIND       PRES   REMARKS
CHANUTE        PTCLDY    91  74  57 W6        30.03S HX 100
COFFEYVILLE    CLEAR     91  76  61 SW6       30.02R HX 103
HUTCHINSON     CLEAR     96  64  34 SW6       30.05S HX  98
MEDICINE LODGE   N/A     93  70  46 SE6       30.06R HX  99
NEWTON         CLEAR     93  66  40 S8        30.09F HX  96
PARSONS        CLEAR     90  76  63 SW3       30.04S HX 101
WICHITA INTL   PTCLDY    92  72  51 S8        30.05R HX  99
WICHITA JABRA  PTCLDY    90  73  57 S8        30.05S HX  98
WINFIELD       PTCLDY    89  76  65 SE7       30.06R HX 100
$$

KSZ007>012-019>026-033>040-048>060-102>105-230200-
NORTHEAST KANSAS

CITY           SKY/WX    TMP DP  RH WIND       PRES   REMARKS
CONCORDIA      CLEAR     92  74  55 NE13      30.06R HX 101
EMPORIA        CLEAR     91  72  53 SW6       30.02F HX  98
LAWRENCE       CLEAR     93  77  59 N6        30.00R HX 107
MANHATTAN      CLEAR     95  75  52 N8        30.01R HX 107
OLATHE IND     CLEAR     94  72  48 SW5       30.02R HX 102
OLATHE EXE     PTCLDY    91  77  63 S3        30.01R HX 104
SALINA         CLEAR     98  69  38 W6        30.03R HX 104
TOPEKA BILLARD CLEAR     97  74  47 N3        30.00R HX 108
TOPEKA FORBES  CLEAR     96  73  47 SW3       30.01S HX 105
$$


USA.gov is the U.S. government's official web portal to all federal, state and local government web resources and services.